EW5309 Weather Reports


time (UTC)temp
C
wind
direction
speed
KPH
gust
KPH
rain 1hr
cm
rain 24hr
cm
rain mn
cm
humidity
%
barometer
mb
20260507151417 12 0.0 0.0 0.00 0.43 0.41 72 1011.0
20260507150918 12 0.0 0.0 0.00 0.43 0.41 74 1010.9
20260507150419 12 0.0 0.0 0.00 0.48 0.41 75 1011.1
20260507145917 11 0.0 0.0 0.00 0.48 0.41 69 1011.1
20260507145418 11 0.0 0.0 0.00 0.51 0.41 72 1011.2
20260507144916 11 0.0 0.0 0.00 0.51 0.41 74 1011.2
20260507143917 11 0.0 0.0 0.00 0.53 0.41 80 1011.4
20260507142916 11 0.0 0.0 0.00 0.53 0.41 81 1011.5
20260507142415 11 0.0 0.0 0.00 0.53 0.41 79 1011.3
20260507141916 11 0.0 0.0 0.00 0.56 0.41 81 1011.5
20260507141416 11 0.0 0.0 0.00 0.58 0.41 81 1011.6
20260507140915 11 0.0 0.0 0.00 0.64 0.41 82 1011.6
20260507140415 11 0.0 0.0 0.00 0.69 0.41 82 1011.7
20260507135915 11 0.0 0.0 0.00 0.71 0.41 83 1011.7
20260507135418 11 0.0 0.0 0.00 0.74 0.41 81 1011.8
20260507134415 11 0.0 0.0 0.00 0.81 0.41 82 1011.8
20260507133915 11 0.0 0.0 0.00 0.86 0.41 84 1011.6
20260507133414 11 0.0 0.0 0.00 0.89 0.41 84 1011.8
20260507132914 11 0.0 0.0 0.00 0.97 0.41 84 1011.9
20260507131914 11 0.0 0.0 0.00 1.04 0.41 87 1011.6
20260507131414 11 0.0 0.0 0.00 1.07 0.41 88 1011.6
20260507130914 10 0.0 0.0 0.00 1.07 0.41 88 1011.6
20260507130413 10 0.0 0.0 0.00 1.09 0.41 87 1011.7
20260507125914 10 0.0 0.0 0.00 1.09 0.41 90 1011.7
20260507125415 10 0.0 0.0 0.00 1.12 0.41 91 1011.9
20260507124914 10 0.0 0.0 0.00 1.12 0.41 92 1011.8
20260507124413 10 0.0 0.0 0.00 1.14 0.41 92 1011.7
20260507123913 10 0.0 0.0 0.00 1.14 0.41 92 1011.6
20260507123414 10 0.0 0.0 0.00 1.17 0.41 92 1011.7
20260507122913 10 0.0 0.0 0.00 1.17 0.41 92 1011.6
20260507122406 10 0.0 0.0 0.00 1.19 0.41 92 1011.5
20260507121906 10 0.0 0.0 0.00 1.19 0.41 93 1011.6
20260507121404 10 0.0 0.0 0.00 1.22 0.41 93 1011.7
20260507120904 10 0.0 0.0 0.00 1.22 0.41 93 1011.6
20260507120403 10 0.0 0.0 0.00 1.22 0.41 92 1011.6
20260507115905 10 0.0 0.0 0.00 1.22 0.41 92 1011.4
20260507115405 10 0.0 0.0 0.00 1.22 0.41 92 1011.3
20260507114903 10 0.0 0.0 0.00 1.22 0.41 92 1011.4
20260507114403 10 0.0 0.0 0.00 1.22 0.41 92 1011.4
20260507113903 10 0.0 0.0 0.00 1.22 0.41 92 1011.2
20260507113404 10 0.0 0.0 0.00 1.22 0.41 92 1011.1
20260507112905 10 0.0 0.0 0.00 1.22 0.41 92 1011.2
20260507112403 10 0.0 0.0 0.00 1.22 0.41 92 1011.1
20260507111905 11 0.0 0.0 0.00 1.22 0.41 92 1011.1
20260507111403 11 0.0 0.0 0.00 1.22 0.41 93 1011.2
20260507110903 11 0.0 0.0 0.00 1.22 0.41 93 1011.3
20260507110403 11 0.0 0.0 0.00 1.22 0.41 93 1011.2
20260507105905 11 0.0 0.0 0.00 1.22 0.41 93 1011.2
20260507104903 11 0.0 0.0 0.00 1.22 0.41 93 1011.1
20260507104403 11 0.0 0.0 0.00 1.22 0.41 93 1010.9
20260507103903 11 0.0 0.0 0.00 1.22 0.41 94 1010.8
20260507103403 11 0.0 0.0 0.00 1.22 0.41 94 1010.8
20260507102904 11 0.0 0.0 0.00 1.22 0.41 94 1010.7
20260507102405 11 0.0 0.0 0.00 1.22 0.41 94 1010.7
20260507101904 11 0.0 0.0 0.00 1.22 0.41 93 1010.7
20260507101403 11 0.0 0.0 0.00 1.22 0.41 93 1010.6
20260507100904 11 0.0 0.0 0.00 1.22 0.41 93 1010.7
20260507100404 11 0.0 0.0 0.00 1.22 0.41 93 1010.5
20260507095904 11 0.0 0.0 0.00 1.22 0.41 93 1010.5
20260507095404 11 0.0 0.0 0.00 1.22 0.41 93 1010.6
20260507094903 11 0.0 0.0 0.00 1.22 0.41 93 1010.6
20260507094403 11 0.0 0.0 0.00 1.22 0.41 93 1010.7
20260507093904 11 0.0 0.0 0.00 1.22 0.41 93 1010.6
20260507093405 11 0.0 0.0 0.00 1.22 0.41 93 1010.5
20260507092903 11 0.0 0.0 0.00 1.22 0.41 93 1010.3
20260507092403 11 0.0 0.0 0.00 1.22 0.41 93 1010.2
20260507091904 11 0.0 0.0 0.00 1.22 0.41 93 1010.3
20260507090903 11 0.0 0.0 0.00 1.22 0.41 93 1010.4
20260507090405 11 0.0 0.0 0.00 1.22 0.41 93 1010.5
20260507085903 11 0.0 0.0 0.00 1.22 0.41 93 1010.5
20260507085403 11 0.0 0.0 0.00 1.22 0.41 93 1010.4
20260507084903 11 0.0 0.0 0.00 1.22 0.41 93 1010.3
20260507084403 11 0.0 0.0 0.00 1.22 0.41 92 1010.3
20260507083403 11 0.0 0.0 0.00 1.22 0.41 92 1010.2
20260507082905 11 0.0 0.0 0.00 1.22 0.41 92 1010.2
20260507082404 11 0.0 0.0 0.00 1.22 0.41 92 1010.0
20260507081904 12 0.0 0.0 0.00 1.22 0.41 92 1010.0
20260507081404 12 0.0 0.0 0.00 1.22 0.41 92 1009.9
20260507080904 12 0.0 0.0 0.00 1.22 0.41 92 1009.6
20260507080404 12 0.0 0.0 0.00 1.22 0.41 92 1009.8
20260507075403 12 0.0 0.0 0.00 1.22 0.41 92 1009.6
20260507074904 12 0.0 0.0 0.00 1.22 0.41 92 1009.6
20260507074402 12 0.0 0.0 0.00 1.22 0.41 92 1009.6
20260507073902 12 0.0 0.0 0.00 1.22 0.41 92 1009.5
20260507073406 12 0.0 0.0 0.00 1.22 0.41 92 1009.4
20260507072903 12 0.0 0.0 0.00 1.22 0.41 92 1009.5
20260507072404 12 0.0 0.0 0.00 1.22 0.41 92 1009.6
20260507071903 12 0.0 0.0 0.00 1.22 0.41 93 1009.4
20260507071403 12 0.0 0.0 0.00 1.22 0.41 93 1009.4
20260507070904 12 0.0 0.0 0.00 1.22 0.41 93 1009.3
20260507070403 13 0.0 0.0 0.00 1.22 0.41 92 1009.3
20260507065903 13 0.0 0.0 0.00 1.22 0.41 93 1009.5
20260507065404 13 0.0 0.0 0.00 1.22 0.41 92 1009.4
20260507064904 13 0.0 0.0 0.03 1.22 0.41 92 1009.4
20260507064403 13 0.0 0.0 0.03 1.22 0.41 92 1009.5
20260507063903 13 0.0 0.0 0.03 1.22 0.41 92 1009.5
20260507062903 13 0.0 0.0 0.03 1.22 0.41 92 1009.6
20260507062403 13 0.0 0.0 0.03 1.22 0.41 92 1009.5
20260507061905 13 0.0 0.0 0.03 1.22 0.41 91 1009.4
20260507060903 13 0.0 0.0 0.03 1.22 0.41 91 1009.4
20260507060403 13 0.0 0.0 0.05 1.22 0.41 91 1009.2
20260507055903 13 0.0 0.0 0.18 1.14 0.41 90 1009.4
20260507054904 13 0.0 0.0 0.30 1.14 0.38 89 1009.7
20260507054403 13 0.0 0.0 0.38 1.14 0.38 89 1009.6
20260507053904 13 0.0 0.0 0.38 1.14 0.38 89 1009.7
20260507053403 14 0.0 0.0 0.38 1.14 0.38 88 1009.7
20260507052904 14 0.0 0.0 0.38 1.14 0.38 88 1009.6
20260507052402 14 0.0 0.0 0.38 1.14 0.38 87 1009.8
20260507051902 14 0.0 0.0 0.38 1.14 0.38 87 1009.4
20260507051403 15 0.0 0.0 0.38 1.14 0.38 85 1009.3
20260507050903 15 0.0 0.0 0.38 1.14 0.36 85 1009.6
20260507050403 15 0.0 0.0 0.36 1.14 0.36 85 1009.6
20260507045401 15 0.0 0.0 0.15 0.81 0.13 83 1010.1
20260507044901 15 0.0 0.0 0.08 0.81 0.05 82 1009.9
20260507044401 15 0.0 0.0 0.00 0.81 0.00 77 1009.6
20260507043902 15 0.0 0.0 0.00 0.81 0.00 77 1009.5
20260507043402 16 0.0 0.0 0.00 0.81 0.00 76 1009.3
20260507042903 16 0.0 0.0 0.00 0.81 0.00 76 1009.7
20260507042401 16 0.0 0.0 0.00 0.81 0.00 76 1009.8
20260507041900 16 0.0 0.0 0.00 0.81 0.00 75 1009.8
20260507041402 16 0.0 0.0 0.00 0.81 0.00 75 1009.6
20260507040900 16 0.0 0.0 0.00 0.81 0.00 75 1009.5
20260507040400 16 0.0 0.0 0.00 0.81 0.00 75 1009.5
20260507034900 16 0.0 0.0 0.00 0.81 0.81 74 1009.1
20260507033858 16 0.0 0.0 0.00 0.81 0.81 75 1009.1
20260507033400 17 0.0 0.0 0.00 0.81 0.81 75 1009.2
20260507032900 17 0.0 0.0 0.00 0.81 0.81 76 1009.1
20260507032359 17 0.0 0.0 0.00 0.81 0.81 76 1009.3
20260507031859 17 0.0 0.0 0.00 0.81 0.81 77 1009.2
20260507031402 17 0.0 0.0 0.00 0.81 0.81 78 1009.2
20260507030859 17 0.0 0.0 0.00 0.81 0.81 78 1008.9
20260507030358 17 0.0 0.0 0.00 0.81 0.81 77 1008.7
20260507025858 17 0.0 0.0 0.00 0.81 0.81 76 1008.5
20260507025357 17 0.0 0.0 0.00 0.81 0.81 76 1008.6
20260507024859 17 0.0 0.0 0.00 0.81 0.81 76 1008.7
20260507024358 17 0.0 0.0 0.00 0.81 0.81 75 1008.7
20260507023858 17 0.0 0.0 0.00 0.81 0.81 74 1008.7
20260507023358 17 0.0 0.0 0.00 0.81 0.81 74 1008.5
20260507022858 17 0.0 0.0 0.00 0.81 0.81 74 1008.5
20260507022358 17 0.0 0.0 0.00 0.81 0.81 74 1008.5
20260507021858 18 0.0 0.0 0.00 0.81 0.81 75 1008.7
20260507021358 18 0.0 0.0 0.00 0.81 0.81 76 1008.5
20260507020859 18 0.0 0.0 0.00 0.81 0.81 76 1008.3
20260507020357 18 0.0 0.0 0.00 0.81 0.81 76 1008.2
20260507015900 18 0.0 0.0 0.00 0.81 0.81 76 1008.0
20260507015357 18 0.0 0.0 0.00 0.81 0.81 76 1008.0
20260507014857 18 0.0 0.0 0.00 0.81 0.81 77 1008.2
20260507014357 18 0.0 0.0 0.00 0.81 0.81 77 1008.2
20260507013856 18 0.0 0.0 0.00 0.81 0.81 77 1008.3
20260507013358 19 0.0 0.0 0.00 0.81 0.81 77 1008.5
20260507012856 19 0.0 0.0 0.00 0.81 0.81 77 1008.4
20260507012358 19 0.0 0.0 0.00 0.81 0.81 78 1008.5
20260507011856 19 0.0 0.0 0.00 0.81 0.81 79 1008.4
20260507011357 19 0.0 0.0 0.00 0.81 0.81 82 1008.4
20260507010856 19 0.0 0.0 0.00 0.81 0.81 82 1008.2
20260507010356 19 0.0 0.0 0.00 0.81 0.81 81 1008.3
20260507005856 19 0.0 0.0 0.00 0.81 0.81 81 1008.4
20260507005356 19 0.0 0.0 0.00 0.81 0.81 81 1008.3
20260507004356 19 0.0 0.0 0.00 0.81 0.81 81 1008.0
20260507003855 19 0.0 0.0 0.00 0.81 0.81 81 1008.0
20260507002854 20 0.0 0.0 0.00 0.81 0.81 80 1007.9
20260507002354 20 0.0 0.0 0.00 0.81 0.81 80 1007.8
20260507001853 20 0.0 0.0 0.00 0.81 0.81 80 1007.8
20260507000854 20 0.0 0.0 0.00 0.81 0.81 80 1007.5
20260507000353 20 0.0 0.0 0.00 0.81 0.81 80 1007.6
20260506235855 20 0.0 0.0 0.00 0.81 0.81 80 1007.7
20260506235352 20 0.0 0.0 0.00 0.81 0.81 79 1007.6
20260506234852 20 0.0 0.0 0.00 0.81 0.81 79 1007.7
20260506234353 20 0.0 0.0 0.00 0.81 0.81 78 1007.6
20260506233352 20 0.0 0.0 0.00 0.81 0.81 78 1007.3
20260506232852 20 0.0 0.0 0.00 0.81 0.81 78 1007.3
20260506232353 20 0.0 0.0 0.00 0.81 0.81 78 1007.3
20260506231853 20 0.0 0.0 0.00 0.81 0.81 78 1007.4
20260506231352 20 0.0 0.0 0.00 0.81 0.81 78 1007.1
20260506230852 20 0.0 0.0 0.00 0.81 0.81 77 1007.1
20260506225853 20 0.0 0.0 0.00 0.81 0.81 78 1007.1
20260506225351 20 0.0 0.0 0.00 0.81 0.81 78 1007.0
20260506224351 21 0.0 0.0 0.00 0.81 0.81 77 1007.2
20260506223851 21 0.0 0.0 0.00 0.81 0.81 77 1007.1
20260506223349 21 0.0 0.0 0.00 0.81 0.81 77 1007.0
20260506222849 21 0.0 0.0 0.00 0.81 0.81 76 1007.1
20260506222351 21 0.0 0.0 0.00 0.81 0.81 77 1006.9
20260506221850 21 0.0 0.0 0.00 0.81 0.81 77 1006.9
20260506221349 21 0.0 0.0 0.00 0.81 0.81 77 1007.0
20260506220849 21 0.0 0.0 0.00 0.81 0.81 76 1007.0
20260506220349 21 0.0 0.0 0.00 0.81 0.81 77 1006.9
20260506215848 21 0.0 0.0 0.00 0.81 0.81 77 1006.9
20260506215348 21 0.0 0.0 0.00 0.81 0.81 76 1007.0
20260506214349 21 0.0 0.0 0.00 0.81 0.81 75 1007.0
20260506213349 21 0.0 0.0 0.00 0.81 0.81 74 1006.9
20260506212849 21 0.0 0.0 0.00 0.81 0.81 73 1006.8
20260506211348 22 0.0 0.0 0.00 0.81 0.81 74 1006.7
20260506210847 22 0.0 0.0 0.00 0.81 0.81 73 1006.7
20260506210349 22 0.0 0.0 0.00 0.81 0.81 73 1006.7
20260506205847 22 0.0 0.0 0.00 0.81 0.81 73 1006.4
20260506204848 22 0.0 0.0 0.00 0.81 0.81 73 1006.5
20260506204347 22 0.0 0.0 0.00 0.81 0.81 74 1006.5
20260506203847 22 0.0 0.0 0.00 0.81 0.81 75 1006.4
20260506203347 21 0.0 0.0 0.00 0.81 0.81 76 1006.3
20260506202346 21 0.0 0.0 0.00 0.81 0.81 74 1006.6
20260506201846 21 0.0 0.0 0.00 0.81 0.81 75 1006.5
20260506201346 21 0.0 0.0 0.00 0.81 0.81 72 1006.6
20260506200346 21 0.0 0.0 0.00 0.81 0.81 74 1006.6
20260506195847 21 0.0 0.0 0.00 0.81 0.81 74 1006.6
20260506195347 21 0.0 0.0 0.00 0.81 0.81 75 1006.5
20260506194848 21 0.0 0.0 0.00 0.81 0.81 75 1006.5
20260506194346 21 0.0 0.0 0.00 0.81 0.81 75 1006.7
20260506192846 21 0.0 0.0 0.00 0.81 0.81 74 1006.7
20260506192346 21 0.0 0.0 0.00 0.81 0.81 77 1006.8
20260506190844 20 0.0 0.0 0.00 0.81 0.81 80 1006.9
20260506185845 20 0.0 0.0 0.00 0.81 0.81 79 1007.0
20260506185340 20 0.0 0.0 0.00 0.81 0.81 80 1006.9
20260506184841 20 0.0 0.0 0.00 0.81 0.81 81 1007.0
20260506184338 20 0.0 0.0 0.00 0.81 0.81 81 1007.1
20260506183833 19 0.0 0.0 0.00 0.81 0.81 81 1007.0
20260506183333 19 0.0 0.0 0.00 0.81 0.81 80 1007.2
20260506182832 19 0.0 0.0 0.00 0.81 0.81 81 1007.3
20260506182333 19 0.0 0.0 0.00 0.81 0.81 81 1007.3
20260506181831 19 0.0 0.0 0.00 0.81 0.81 81 1007.1
20260506181331 19 0.0 0.0 0.00 0.81 0.81 81 1007.2
20260506180831 19 0.0 0.0 0.00 0.81 0.81 83 1007.3
20260506180329 18 0.0 0.0 0.00 0.81 0.81 83 1007.4
20260506175829 18 0.0 0.0 0.00 0.81 0.81 83 1007.5
20260506175331 18 0.0 0.0 0.00 0.81 0.81 84 1007.3
20260506174830 18 0.0 0.0 0.00 0.81 0.81 85 1007.7
20260506173820 18 0.0 0.0 0.00 0.81 0.81 86 1007.5
20260506173320 18 0.0 0.0 0.00 0.81 0.81 87 1007.5
20260506172820 17 0.0 0.0 0.00 0.81 0.81 87 1007.6
20260506171818 17 0.0 0.0 0.00 0.81 0.81 89 1007.6
20260506171314 17 0.0 0.0 0.00 0.81 0.81 89 1007.6
20260506170814 17 0.0 0.0 0.00 0.81 0.81 89 1007.7
20260506170307 17 0.0 0.0 0.00 0.81 0.81 89 1007.6
20260506165807 17 0.0 0.0 0.00 0.81 0.81 89 1007.8
20260506165305 17 0.0 0.0 0.00 0.81 0.81 90 1007.8
20260506164804 17 0.0 0.0 0.00 0.81 0.81 90 1007.7
20260506162804 16 0.0 0.0 0.00 0.81 0.81 92 1008.0
20260506162306 16 0.0 0.0 0.00 0.81 0.81 93 1007.8
20260506161303 16 0.0 0.0 0.03 0.81 0.81 93 1007.9
20260506160803 16 0.0 0.0 0.05 0.81 0.81 93 1008.0
20260506160304 16 0.0 0.0 0.08 0.81 0.81 93 1007.8
20260506155305 16 0.0 0.0 0.10 0.74 0.81 94 1008.0
20260506154805 16 0.0 0.0 0.10 0.74 0.81 94 1008.1
20260506154303 16 0.0 0.0 0.13 0.74 0.81 94 1007.9
20260506153804 16 0.0 0.0 0.13 0.74 0.81 93 1008.0
20260506153303 16 0.0 0.0 0.13 0.74 0.81 93 1008.2
20260506152803 16 0.0 0.0 0.13 0.74 0.81 93 1008.3
20260506152306 15 0.0 0.0 0.15 0.74 0.81 93 1008.0
20260506151803 15 0.0 0.0 0.15 0.74 0.79 93 1008.1